Content
SEND FEEDBACK

Daily
Averages
Monthly
Summary
United States of America

TIMBERLAKE, VIRGINIA


Home > North America > United States > Virginia
Elevation: 938 feet     Latitude: 37 19N     Longitude: 079 12W

WEATHER
 
SELECT A DAY
Number of Records: 216,916;   Date Range: 1/1/95 - 12/25/14
 
SHARE

PRINT THIS DATA

[ ← Previous Day ]
WEATHER ALMANAC - JANUARY 31, 2013
[ Next Day → ]
[ °C ]   °F
Weather ElementAverageHighLow
Temperature38.5 °F51.1 °F (1:54 am)28 °F (11:54 pm)
Dewpoint21.7 °F46 °F (1:54 am)15.1 °F (1:54 pm)
Humidity51.9 %83 % (1:54 am)38 % (1:54 pm)
Barometer29.76 in29.95 in (9:54 pm)29.37 in (1:54 am)
Wind Speed9.9 mph15 mph (2:54 am)
Wind Gust31.1 mph (2:54 am)
Weather ElementAverage
Visibility10 mi
Wind DirectionWSW (248.7 °)

Weather ElementTotal
Precipitation---
Heating Degree Days25.5 (Base 65)
Averaged from 23 records on January 31, 2013
WEATHER CONDITIONS BREAKOUT
WIND DIRECTION BREAKOUT
WEATHER BY HOUR - JANUARY 31, 2013
[ °C ]   °F
Local TimeTemperatureDewpointHumidityBarometerVisibilityWind DirectionWind SpeedGust SpeedPrecipitationEventsConditions
1:54 AM51.1 °F46.0 °F83 %29.37 in10.0 miWSW (250°)9.2 mph21.9 mph0.00 inRainLight Rain
2:54 AM50.0 °F39.9 °F68 %29.39 in10.0 miWest (270°)15.0 mph31.1 mph0.00 inPartly Cloudy
3:54 AM45.0 °F36.0 °F71 %29.43 in10.0 miWest (260°)10.4 mph19.6 mphOvercast
4:54 AM44.1 °F32.0 °F63 %29.50 in10.0 miWest (270°)11.5 mph24.2 mphPartly Cloudy
5:54 AM41.0 °F26.1 °F55 %29.57 in10.0 miWest (260°)10.4 mph21.9 mphPartly Cloudy
6:54 AM39.0 °F21.0 °F49 %29.62 in10.0 miWest (260°)11.5 mph25.3 mphPartly Cloudy
7:54 AM37.9 °F19.9 °F48 %29.69 in10.0 miWest (270°)10.4 mph23.0 mphScattered Clouds
8:54 AM37.9 °F19.0 °F47 %29.71 in10.0 miWest (260°)15.0 mph26.5 mphClear
9:54 AM39.9 °F19.9 °F45 %29.76 in10.0 miWest (260°)15.0 mph28.8 mphPartly Cloudy
10:54 AM39.9 °F21.0 °F47 %29.78 in10.0 miWSW (250°)13.8 mph28.8 mphPartly Cloudy
11:54 AM39.9 °F19.0 °F43 %29.81 in10.0 miWSW (250°)10.4 mph24.2 mphOvercast
12:54 PM39.0 °F21.0 °F49 %29.79 in10.0 miWest (270°)9.2 mph23.0 mphMostly Cloudy
1:54 PM39.0 °F15.1 °F38 %29.81 in10.0 miWest (280°)13.8 mph25.3 mphPartly Cloudy
2:54 PM39.0 °F17.1 °F41 %29.85 in10.0 miWNW (290°)10.4 mph19.6 mphOvercast
3:54 PM37.0 °F16.0 °F42 %29.88 in10.0 miWest (280°)12.7 mph24.2 mphOvercast
4:54 PM37.9 °F15.1 °F39 %29.90 in10.0 miWest (280°)11.5 mph19.6 mphOvercast
5:54 PM36.0 °F16.0 °F44 %29.92 in10.0 miWest (270°)6.9 mph16.1 mphMostly Cloudy
6:54 PM35.1 °F17.1 °F48 %29.94 in10.0 miWest (270°)5.8 mphPartly Cloudy
7:54 PM33.1 °F16.0 °F50 %29.94 in10.0 miVariable6.9 mphClear
8:54 PM33.1 °F16.0 °F50 %29.94 in10.0 miWSW (250°)4.6 mphClear
9:54 PM30.9 °F16.0 °F54 %29.95 in10.0 miWSW (240°)3.5 mphClear
10:54 PM30.9 °F16.0 °F54 %29.94 in10.0 miSW (220°)3.5 mphClear
11:54 PM28.0 °F18.0 °F66 %29.93 in10.0 miSSW (210°)5.8 mphClear
Hourly data recorded from KLYH, located miles away from Timberlake, Virginia







STORIES FROM OUR PARTNERS